Location: Hughenden
(52.5123°N, 110.9645°W)
Time: 14:48:12
(UTC+00:00)

BlueWalker 3 - Visible Passes

Search period start: 09 June 2023 00:00
Search period end: 19 June 2023 00:00
Orbit: 494 x 513 km, 53.2° (Epoch: 08 June)

Date Brightness Start Highest point End Pass type
(mag) Time Alt. Az. Time Alt. Az. Time Alt. Az.
09 Jun 2.0 05:13:58 10° WNW 05:17:47 64° SSW 05:21:32 11° ESE visible
09 Jun 3.4 06:52:58 10° W 06:55:49 20° SW 06:56:11 20° SSW visible
10 Jun 2.0 04:53:31 10° WNW 04:57:20 63° SSW 05:01:10 10° ESE visible
10 Jun 3.5 06:32:32 10° W 06:35:21 19° SW 06:36:04 18° SSW visible
11 Jun 2.1 04:33:03 10° WNW 04:36:52 63° SSW 04:40:41 10° ESE visible
11 Jun 3.6 06:12:06 10° W 06:14:52 19° SW 06:16:00 17° SSW visible
12 Jun 3.7 05:51:39 10° W 05:54:23 19° SW 05:55:59 15° S visible
13 Jun 3.8 05:31:11 10° W 05:33:52 18° SW 05:35:59 12° S visible
14 Jun 3.8 05:10:42 10° W 05:13:22 18° SW 05:16:01 10° S visible
15 Jun 3.9 04:50:14 10° W 04:52:50 17° SW 04:55:27 10° S visible
